Tracking 17694 objects as of 26-May-2016
HD Live streaming from Space Station
objects crossing your sky now

RIGIDSPHERE 2 (LCS 4)

Track RIGIDSPHERE 2 (LCS 4) now!
10-day predictions
RIGIDSPHERE 2 (LCS 4) is classified as:


NORAD ID: 5398
Int'l Code: 1971-067E
Perigee: 740.3 km
Apogee: 834.5 km
Inclination: 87.6 °
Period: 100.5 minutes
Semi major axis: 7158 km
RCS: 0.9311 m2 (medium)
Launch date: August 7, 1971
Source: United States (US)
Launch site: AIR FORCE WESTERN TEST RANGE (AFWTR)
Your satellite tracking list
Your tracking list is empty





NASA's NSSDC Master Catalog

Two Line Element Set (TLE):
1 05398U 71067E   16146.47679051  .00000231  00000-0  75168-4 0  9990
2 05398  87.6219 273.1277 0065785 123.0851 237.6685 14.33436263347242
Source of the keplerian elements: AFSPC

N2YO: 627